Starlink 31404

operational
NORAD ID: 59521 Int'l Des: 2024-073 Owner: SPXS Country: US Constellation: starlink
LEOCIRCULAR

About Starlink 31404

Description loading...

Live Position

Loading 3D Globe...

Upcoming Passes

Altitude History

Altitude vs Time

uPlot chart will show altitude changes over time

Two-Line Element Set

1 59521U 24073L 26034.37419094 -.00001470 00000-0 -43927-4 0 9993
2 59521 43.0006 152.1473 0001302 278.0533 82.0170 15.27576684100925
Epoch: Feb 3, 2026 • Age: 23 hours

Current Status

Altitude 494.5 km
Velocity 7.62 km/s
Sub-Earth Point -40.34°S, 136.44°E
Launch Date Apr 17, 2024
Age 1.7 years
Type internet

Technical Details

Classification Payload
Mass 730.00 kg
Dry Mass 700.00 kg
Total Mass 730.00 kg
Length 0.30 m
Diameter 4.10 m
Span 29.00 m
Shape Box + pan
Manufacturer SPXS
Bus Type Starlink V2M
Phase Status In Orbit
Owner/State SPXS/US

Large Constellations

Loading constellations...